Tracking 28096 objects as of 29-Sep-2023
HD Live streaming from Space Station
objects crossing your sky now

STARLINK-30110

Track STARLINK-30110 now!
10-day predictions
STARLINK-30110 is classified as:


NORAD ID: 57474
Int'l Code: 2023-107T
Perigee: 565.4 km
Apogee: 567.0 km
Inclination: 43.0 °
Period: 95.8 minutes
Semi major axis: 6937 km
RCS: Unknown
Launch date: July 28, 2023
Source: (TBD)
Launch site: AIR FORCE EASTERN TEST RANGE (AFETR)
Your satellite tracking list
Your tracking list is empty




NASA's NSSDC Master Catalog

Two Line Element Set (TLE):
1 57474U 23107T   23271.86428788  .00003918  00000-0  30498-3 0  9994
2 57474  42.9992 149.9514 0001128 244.8680 115.2045 15.02531817 10812
Source of the keplerian elements: AFSPC